Theta_e
344 343 342 341 341 341 340 339 338 338 338 337 338 338 339 339 340 340 340 341 340 341 343 345 346 346 347 347 346 344 343 342 341 338 335 333 331 329 327 325 323 324
345 345 345 345 344 344 343 342 341 341 340 339 339 339 340 340 341 341 342 342 342 341 343 345 346 346 347 347 347 346 344 342 341 338 334 331 329 327 324 322 320 319
345 345 346 345 345 345 346 345 344 343 341 341 341 341 341 341 341 342 343 342 342 342 343 345 345 346 347 347 347 347 345 343 341 337 333 330 327 325 324 322 320 318
344 344 345 345 345 345 346 347 346 344 343 342 341 341 341 341 341 342 343 343 343 342 342 344 345 345 346 347 347 347 345 343 341 338 334 330 326 324 324 322 320 318
342 344 344 344 345 345 346 347 346 345 344 343 342 341 341 340 341 342 343 343 342 342 342 344 345 344 345 346 346 346 345 343 341 337 335 331 326 324 324 322 321 318
342 343 344 344 345 345 345 346 346 346 345 344 343 342 342 341 341 341 342 343 342 341 342 343 344 344 344 345 345 345 344 342 341 338 336 333 329 326 323 322 322 320
341 342 343 344 345 345 345 345 345 345 344 344 344 343 343 343 342 341 341 342 343 342 342 343 344 344 343 344 344 344 343 342 341 339 336 335 332 328 325 323 322 321
340 341 342 343 345 345 346 345 345 345 344 345 345 345 344 344 343 341 341 341 342 342 342 342 343 343 343 344 343 342 342 341 340 339 337 335 333 330 326 324 323 321
342 342 342 343 344 345 345 346 346 345 345 345 345 345 345 345 343 342 341 340 341 342 342 342 342 342 343 343 342 342 342 341 340 339 338 335 333 330 327 325 324 322
344 344 344 344 345 345 346 346 346 346 345 345 345 346 345 345 344 344 342 341 340 341 342 342 342 342 342 343 342 341 341 341 339 338 337 336 334 331 328 326 324 322
344 345 345 345 346 346 346 346 346 346 346 346 346 346 346 345 345 345 344 342 340 340 341 341 342 342 342 342 342 341 340 340 340 339 337 337 335 333 331 327 323 322
344 345 345 345 346 346 346 346 346 347 346 346 346 346 346 346 346 345 344 342 340 339 339 340 340 341 341 342 342 341 339 339 340 340 339 337 336 335 334 331 325 322
344 344 344 344 345 345 345 346 346 347 347 346 346 346 347 347 347 346 344 343 341 339 338 339 339 340 340 341 342 342 340 339 339 340 340 339 337 336 336 335 331 325
344 344 344 344 345 344 344 345 345 347 347 347 347 347 347 347 347 347 345 344 343 341 339 338 338 339 339 340 342 342 341 340 339 339 340 340 338 337 336 336 335 331
345 345 344 344 345 345 345 345 345 346 347 347 347 347 348 348 348 348 347 345 345 343 341 339 337 337 337 338 340 341 341 341 339 339 339 339 339 338 336 336 337 336
346 345 345 345 346 346 345 345 346 346 346 347 347 348 348 349 348 349 348 348 346 344 342 340 338 336 336 337 339 340 341 341 340 339 338 339 340 339 337 337 337 338
346 346 346 346 346 346 346 346 346 347 347 347 347 348 349 349 349 349 349 349 347 345 343 341 338 336 335 336 338 339 341 341 341 341 339 339 340 340 339 337 338 339
346 347 346 346 346 347 346 347 347 347 347 347 348 348 349 349 349 350 349 349 348 345 343 340 338 336 335 336 337 338 340 341 342 342 342 340 340 340 340 338 338 339
347 347 346 347 347 347 347 347 347 347 347 347 348 348 349 349 350 350 350 350 349 347 343 340 337 336 335 336 337 338 340 341 341 342 343 343 342 341 341 340 339 339
347 347 346 347 347 347 348 348 347 347 347 348 349 349 349 349 350 350 350 350 349 347 343 340 338 336 335 336 337 338 339 340 341 342 343 344 344 343 342 341 340 340
347 347 347 347 347 347 348 348 348 348 348 349 349 349 350 350 350 350 351 350 350 348 345 343 341 338 335 337 338 339 340 341 342 343 342 343 345 344 344 343 342 341
347 347 348 348 348 348 349 349 348 348 348 349 349 349 350 352 352 351 350 351 351 349 348 348 347 341 335 336 337 339 341 343 345 345 344 343 344 345 345 344 343 342
347 348 348 348 348 349 349 349 349 349 349 349 350 350 350 351 352 352 352 352 352 351 350 350 350 345 339 338 339 340 342 344 346 347 346 345 345 345 345 345 344 343
347 347 348 349 349 349 349 349 349 349 350 350 350 350 350 351 352 353 354 354 353 351 351 351 351 349 345 344 344 344 344 345 346 348 348 347 346 346 346 346 345 344
346 347 348 348 349 349 349 349 350 350 350 351 351 351 351 352 353 354 356 356 354 354 354 352 352 352 350 350 350 349 348 348 348 349 349 348 348 348 348 347 346 345
347 348 348 348 349 349 349 350 350 351 351 351 351 352 352 353 355 355 355 355 355 355 355 353 352 353 352 352 352 352 351 351 350 350 349 348 349 349 349 347 345 346
Wind_Speed
39 38 38 37 37 36 34 33 32 31 30 29 28 27 27 25 24 22 22 21 21 21 21 21 20 21 20 18 17 17 16 15 14 14 14 14 13 13 13 12 12 12
41 40 39 38 37 36 35 33 32 31 30 28 27 26 26 26 25 23 23 22 21 20 20 21 21 22 21 19 18 17 17 16 15 15 15 15 14 14 13 12 11 11
43 42 41 39 38 37 35 35 33 32 30 29 28 26 26 25 25 24 23 23 22 21 21 21 22 23 22 20 19 18 18 17 16 16 16 15 15 15 13 12 11 11
44 43 42 41 40 38 37 36 34 32 32 31 30 28 26 26 26 25 25 24 23 23 22 22 23 23 22 21 20 20 19 18 17 17 17 17 16 16 15 13 12 11
45 44 43 42 41 40 39 37 35 34 34 33 31 30 28 28 27 27 27 26 25 24 24 23 23 23 22 22 21 21 21 20 19 19 19 19 18 18 16 15 13 12
46 45 44 43 43 42 41 39 38 36 35 34 33 31 30 30 29 29 29 28 27 26 25 25 25 23 23 22 22 22 22 21 21 20 20 20 20 19 19 17 15 13
47 46 45 44 44 43 42 41 40 38 36 35 34 32 31 31 32 32 31 30 29 28 27 27 26 24 24 23 23 23 23 23 23 22 22 22 21 21 21 19 17 15
46 46 45 45 45 44 43 42 41 39 37 36 35 33 32 32 32 33 34 33 32 30 29 28 27 26 25 25 25 25 24 25 25 25 24 23 23 23 23 22 19 17
47 47 46 46 45 45 44 43 42 40 38 37 36 35 33 33 33 34 35 35 34 33 31 30 29 27 27 26 26 26 25 26 27 27 26 25 25 24 24 23 21 19
47 47 47 46 46 47 46 45 43 41 40 39 37 36 35 34 33 34 35 37 37 36 34 32 31 29 29 28 27 27 27 27 28 28 27 26 25 24 24 23 23 22
47 47 47 47 47 47 46 45 44 43 41 40 39 38 37 35 34 34 35 37 39 39 37 34 33 31 30 30 29 28 28 28 29 28 28 27 26 25 24 23 23 23
49 48 48 47 47 46 45 44 43 43 42 40 39 39 39 37 35 35 36 37 39 40 40 38 35 33 32 31 30 30 29 30 30 30 29 28 27 26 25 24 24 24
51 50 49 48 47 46 44 42 42 42 41 40 38 39 40 38 37 37 37 38 38 39 41 40 38 36 34 33 32 31 31 31 31 31 30 30 29 27 27 26 25 24
53 52 50 49 48 46 44 43 42 42 41 40 38 39 40 39 37 37 38 38 39 39 40 41 41 39 37 35 34 33 32 32 32 32 32 31 30 29 28 28 27 26
53 53 51 51 50 48 46 45 44 43 42 41 40 40 40 39 37 38 38 39 39 39 40 41 42 42 41 39 37 36 35 34 33 33 33 33 31 30 29 29 29 28
53 52 52 52 51 50 49 46 45 45 43 42 41 40 40 39 38 38 39 40 40 40 41 42 43 44 43 41 39 37 36 36 35 34 34 34 33 31 31 30 30 29
52 51 51 52 52 51 50 48 47 46 45 43 42 42 41 40 39 40 40 40 41 41 42 43 45 45 43 42 41 38 37 37 37 35 35 35 34 33 32 31 30 30
52 51 51 51 51 51 50 49 47 47 46 45 44 44 43 42 41 40 41 41 42 42 43 45 46 46 44 43 42 39 38 39 38 37 36 36 35 34 32 31 31 31
51 51 51 51 51 50 50 49 48 48 47 47 46 45 44 44 43 42 41 42 43 44 45 45 46 46 45 44 43 40 39 40 40 39 38 37 36 34 33 32 32 32
51 51 51 51 51 50 50 50 49 48 48 48 47 46 46 47 46 43 42 43 44 45 46 46 46 47 46 45 44 41 40 40 40 40 39 38 37 35 33 33 33 34
51 51 51 51 50 50 51 50 49 48 49 49 49 49 49 49 48 46 44 44 45 45 45 45 46 47 47 46 44 42 41 41 41 41 40 39 39 37 35 34 34 35
51 51 51 51 50 51 51 51 50 50 50 49 49 49 49 49 49 48 47 46 45 45 45 45 46 47 48 47 45 43 42 41 41 41 40 40 40 38 37 36 35 36
51 51 51 51 50 51 51 51 51 50 49 49 49 49 50 50 50 49 48 48 48 46 46 46 46 47 47 45 44 43 42 43 43 42 41 41 41 40 39 37 36 37
49 49 49 50 50 50 51 51 50 49 49 49 49 49 49 50 50 47 41 43 49 49 47 47 46 45 45 43 42 42 43 43 43 42 41 41 42 42 40 38 38 38
46 47 47 49 49 49 50 50 49 49 50 49 49 50 50 49 49 43 36 39 46 46 45 47 47 45 45 44 42 41 42 43 43 42 42 42 43 42 41 39 40 41
45 46 46 47 47 48 48 49 49 49 49 49 50 50 50 47 44 41 40 43 43 39 40 47 48 47 47 47 44 42 41 41 42 43 43 43 43 43 42 41 42 43
Wind_Direction
228 228 228 230 232 235 236 238 238 239 239 238 237 236 235 236 238 239 241 243 245 245 245 246 246 242 239 240 241 244 246 245 245 245 244 242 242 242 239 234 234 239
229 230 230 231 232 234 236 237 238 238 237 236 236 236 235 237 238 238 239 242 244 245 245 245 243 238 236 238 240 242 243 242 241 242 240 238 236 235 233 230 231 236
232 232 232 232 233 234 235 237 238 238 238 237 235 235 236 237 237 237 237 239 242 243 243 243 241 236 234 237 238 240 241 238 238 240 239 237 235 233 230 227 228 233
233 234 235 235 236 236 237 237 238 238 239 238 235 234 234 235 237 238 237 238 239 240 240 240 239 236 235 237 238 238 238 235 234 235 236 234 232 231 229 226 226 228
235 236 236 237 238 238 238 239 239 239 239 239 237 234 233 233 235 237 237 236 236 237 238 237 236 236 236 238 238 236 235 232 231 231 232 231 229 229 229 227 226 226
237 237 237 238 239 239 240 240 240 240 240 240 239 237 234 233 234 236 237 236 235 235 234 234 233 234 236 237 237 235 233 231 229 229 231 231 229 228 228 227 227 227
237 238 238 238 239 239 240 240 240 240 240 241 240 238 236 234 233 233 235 235 235 233 232 232 232 233 236 236 236 234 232 230 229 228 230 231 230 229 229 227 227 228
238 238 239 239 239 239 240 239 240 241 240 241 241 239 237 235 234 233 233 234 234 233 231 230 230 232 235 236 235 234 231 230 229 228 229 230 230 229 229 228 228 228
237 238 239 240 240 240 241 240 241 241 240 240 240 240 238 236 234 232 232 232 233 233 231 229 229 230 233 235 234 233 232 230 229 229 229 230 230 229 229 229 228 228
238 238 239 239 239 240 241 241 242 242 242 240 240 240 239 237 235 233 232 232 232 232 230 229 228 228 231 234 234 233 231 230 230 231 231 230 231 230 230 230 229 228
239 239 239 239 239 240 241 242 242 242 243 242 240 240 239 237 236 235 233 232 231 231 230 229 229 228 229 232 234 233 231 230 231 231 232 232 232 232 232 232 231 229
239 238 239 239 239 240 241 242 242 242 243 243 241 241 240 238 236 235 234 233 232 231 230 229 229 229 229 231 233 234 232 231 231 232 233 234 233 232 233 233 232 231
238 239 240 240 240 241 242 242 242 241 242 242 241 241 241 239 236 235 235 234 234 233 231 231 230 229 230 230 232 233 232 232 232 233 234 235 233 232 232 233 233 233
238 239 240 240 241 242 242 243 242 242 241 241 241 241 241 239 237 236 236 236 236 234 233 232 231 230 229 229 230 232 232 232 233 234 235 235 234 232 231 232 232 233
238 238 240 240 241 241 242 242 242 242 242 241 241 240 240 240 238 237 236 236 237 236 235 234 232 230 229 228 228 229 231 231 232 234 235 236 235 233 231 231 232 233
237 238 239 240 240 240 241 241 241 241 241 241 241 241 240 240 238 237 236 236 237 237 236 235 233 231 229 228 228 228 230 231 231 232 234 235 235 233 231 231 232 233
236 237 238 239 239 239 240 240 240 241 241 241 241 240 240 239 238 236 236 236 236 236 236 236 234 232 229 229 228 227 229 231 231 231 233 235 235 233 231 230 231 233
235 235 236 238 238 238 238 239 239 241 241 241 240 240 240 239 238 236 236 236 236 236 236 236 235 233 231 230 229 227 227 230 232 232 232 234 235 233 231 230 231 232
233 234 236 237 238 238 238 238 239 240 240 240 240 239 239 239 238 236 236 236 236 236 236 237 236 234 232 232 231 228 228 230 232 232 232 233 235 234 232 230 230 231
232 234 235 237 238 237 237 237 238 239 240 240 240 239 238 239 239 237 236 236 237 237 236 237 237 236 234 234 233 230 230 230 232 233 233 233 234 234 232 231 230 230
232 234 235 236 237 236 237 237 238 239 239 239 239 239 239 239 239 238 237 236 237 238 238 238 239 238 236 235 234 232 232 232 233 234 233 233 233 233 232 231 230 230
233 234 235 235 235 235 236 237 238 238 239 239 239 240 240 239 239 239 238 238 239 240 240 240 241 240 238 236 235 234 234 233 234 234 233 233 233 232 231 231 229 229
234 234 235 235 235 235 236 237 238 239 239 239 239 240 240 239 240 240 239 239 239 240 241 241 242 242 241 239 238 237 236 234 234 234 232 232 232 232 231 230 228 228
235 236 237 236 236 237 238 239 239 240 241 240 240 240 240 240 241 241 239 238 239 240 241 241 243 245 245 244 242 241 239 237 235 234 233 232 232 232 232 230 229 229
238 238 238 238 239 240 240 240 240 241 241 241 241 241 241 240 240 239 236 238 240 240 240 241 242 245 247 246 244 243 242 240 237 235 234 233 232 231 231 229 229 230
239 238 239 240 242 242 242 241 242 242 242 243 243 242 242 240 238 237 238 241 240 237 238 241 241 242 245 246 244 243 243 241 238 235 234 233 232 232 230 227 227 229